| time (UTC) | temp F | wind direction | speed MPH | gust MPH | rain 1hr in | rain 24hr in | rain mn in | humidity % | barometer mb |
| 20260507221017 | 86 | 270 | 2.0 | 8.0 | 0.00 | 0.00 | 0.00 | 60 | 985.2 |
| 20260507220017 | 87 | 248 | 2.0 | 7.0 | 0.00 | 0.00 | 0.00 | 59 | 985.2 |
| 20260507215037 | 89 | 270 | 2.0 | 9.0 | 0.00 | 0.00 | 0.00 | 56 | 985.0 |
| 20260507214017 | 89 | 270 | 2.0 | 12.0 | 0.00 | 0.00 | 0.00 | 54 | 984.9 |
| 20260507213016 | 90 | 248 | 2.0 | 12.0 | 0.00 | 0.00 | 0.00 | 53 | 984.9 |
| 20260507212017 | 91 | 270 | 2.0 | 11.0 | 0.00 | 0.00 | 0.00 | 51 | 984.9 |
| 20260507211017 | 91 | 270 | 3.0 | 11.0 | 0.00 | 0.00 | 0.00 | 50 | 984.8 |
| 20260507210016 | 92 | 270 | 1.0 | 6.0 | 0.00 | 0.00 | 0.00 | 49 | 984.8 |
| 20260507205017 | 92 | 270 | 2.0 | 10.0 | 0.00 | 0.00 | 0.00 | 48 | 984.8 |
| 20260507204036 | 93 | 315 | 1.0 | 11.0 | 0.00 | 0.00 | 0.00 | 46 | 984.6 |
| 20260507203016 | 92 | 248 | 1.0 | 9.0 | 0.00 | 0.00 | 0.00 | 47 | 984.6 |
| 20260507202037 | 91 | 293 | 1.0 | 7.0 | 0.00 | 0.00 | 0.00 | 48 | 984.8 |
| 20260507201036 | 93 | 315 | 1.0 | 9.0 | 0.00 | 0.00 | 0.00 | 40 | 984.9 |
| 20260507200016 | 92 | 0.0 | 5.0 | 0.00 | 0.00 | 0.00 | 40 | 984.9 | |
| 20260507195016 | 92 | 0 | 3.0 | 10.0 | 0.00 | 0.00 | 0.00 | 38 | 984.9 |
| 20260507194016 | 92 | 0 | 1.0 | 7.0 | 0.00 | 0.00 | 0.00 | 42 | 985.0 |
| 20260507193037 | 92 | 0 | 2.0 | 13.0 | 0.00 | 0.00 | 0.00 | 39 | 985.0 |
| 20260507192016 | 92 | 0 | 3.0 | 14.0 | 0.00 | 0.00 | 0.00 | 40 | 985.1 |
| 20260507191016 | 92 | 0 | 3.0 | 12.0 | 0.00 | 0.00 | 0.00 | 40 | 985.4 |
| 20260507190016 | 92 | 0 | 2.0 | 10.0 | 0.00 | 0.00 | 0.00 | 40 | 985.4 |
| 20260507185057 | 92 | 0 | 3.0 | 11.0 | 0.00 | 0.00 | 0.00 | 43 | 985.5 |
| 20260507184016 | 92 | 293 | 3.0 | 10.0 | 0.00 | 0.00 | 0.00 | 41 | 985.7 |
| 20260507183016 | 92 | 0 | 2.0 | 12.0 | 0.00 | 0.00 | 0.00 | 42 | 985.7 |
| 20260507182016 | 91 | 0 | 1.0 | 4.0 | 0.00 | 0.00 | 0.00 | 43 | 986.0 |
| 20260507181016 | 92 | 315 | 3.0 | 13.0 | 0.00 | 0.00 | 0.00 | 43 | 986.4 |
| 20260507180016 | 92 | 293 | 2.0 | 12.0 | 0.00 | 0.00 | 0.00 | 45 | 986.4 |
| 20260507175016 | 91 | 0 | 2.0 | 6.0 | 0.00 | 0.00 | 0.00 | 45 | 986.6 |
| 20260507174016 | 91 | 315 | 3.0 | 11.0 | 0.00 | 0.00 | 0.00 | 45 | 987.0 |
| 20260507173036 | 91 | 0 | 1.0 | 10.0 | 0.00 | 0.00 | 0.00 | 45 | 987.0 |
| 20260507172016 | 91 | 0 | 4.0 | 13.0 | 0.00 | 0.00 | 0.00 | 44 | 987.2 |
| 20260507171016 | 90 | 338 | 3.0 | 10.0 | 0.00 | 0.00 | 0.00 | 47 | 987.5 |
| 20260507170016 | 89 | 0 | 3.0 | 10.0 | 0.00 | 0.00 | 0.00 | 49 | 987.5 |
| 20260507165016 | 89 | 0 | 2.0 | 12.0 | 0.00 | 0.00 | 0.00 | 49 | 987.7 |
| 20260507164036 | 89 | 0 | 3.0 | 11.0 | 0.00 | 0.00 | 0.00 | 50 | 987.8 |
| 20260507163016 | 89 | 0 | 4.0 | 11.0 | 0.00 | 0.00 | 0.00 | 50 | 987.8 |
| 20260507162016 | 89 | 0 | 4.0 | 11.0 | 0.00 | 0.00 | 0.00 | 50 | 987.8 |
| 20260507161016 | 88 | 0 | 2.0 | 11.0 | 0.00 | 0.00 | 0.00 | 50 | 988.0 |
| 20260507160016 | 88 | 315 | 1.0 | 9.0 | 0.00 | 0.00 | 0.00 | 53 | 988.0 |
| 20260507155015 | 88 | 0 | 4.0 | 14.0 | 0.00 | 0.00 | 0.00 | 53 | 988.1 |
| 20260507154015 | 87 | 0 | 1.0 | 7.0 | 0.00 | 0.00 | 0.00 | 53 | 988.1 |
| 20260507153016 | 87 | 315 | 3.0 | 12.0 | 0.00 | 0.00 | 0.00 | 56 | 988.1 |
| 20260507152017 | 86 | 0 | 1.0 | 10.0 | 0.00 | 0.00 | 0.00 | 56 | 988.2 |
| 20260507151018 | 86 | 293 | 2.0 | 9.0 | 0.00 | 0.00 | 0.00 | 57 | 988.4 |
| 20260507150017 | 86 | 0 | 2.0 | 10.0 | 0.00 | 0.00 | 0.00 | 58 | 988.4 |
| 20260507145017 | 85 | 0 | 2.0 | 15.0 | 0.00 | 0.00 | 0.00 | 59 | 988.6 |
| 20260507144018 | 84 | 0 | 2.0 | 7.0 | 0.00 | 0.00 | 0.00 | 60 | 988.6 |
| 20260507143018 | 84 | 0 | 3.0 | 10.0 | 0.00 | 0.00 | 0.00 | 62 | 988.6 |
| 20260507142037 | 84 | 0 | 2.0 | 10.0 | 0.00 | 0.00 | 0.00 | 62 | 988.5 |
| 20260507141017 | 83 | 315 | 3.0 | 11.0 | 0.00 | 0.00 | 0.00 | 65 | 988.6 |
| 20260507140017 | 82 | 0 | 3.0 | 9.0 | 0.00 | 0.00 | 0.00 | 67 | 988.6 |
| 20260507135017 | 82 | 0 | 2.0 | 7.0 | 0.00 | 0.00 | 0.00 | 67 | 988.6 |
| 20260507134017 | 83 | 315 | 1.0 | 10.0 | 0.00 | 0.00 | 0.00 | 65 | 988.6 |
| 20260507133017 | 82 | 0 | 1.0 | 5.0 | 0.00 | 0.00 | 0.00 | 67 | 988.6 |
| 20260507132037 | 81 | 0.0 | 6.0 | 0.00 | 0.00 | 0.00 | 69 | 988.6 | |
| 20260507131017 | 82 | 0 | 2.0 | 6.0 | 0.00 | 0.00 | 0.00 | 68 | 988.7 |
| 20260507130017 | 81 | 0.0 | 6.0 | 0.00 | 0.00 | 0.00 | 71 | 988.7 | |
| 20260507125017 | 80 | 0.0 | 4.0 | 0.00 | 0.00 | 0.00 | 72 | 988.8 | |
| 20260507124017 | 81 | 0 | 1.0 | 5.0 | 0.00 | 0.00 | 0.00 | 71 | 988.6 |
| 20260507123017 | 80 | 315 | 1.0 | 6.0 | 0.00 | 0.00 | 0.00 | 72 | 988.6 |
| 20260507122017 | 80 | 315 | 1.0 | 7.0 | 0.00 | 0.00 | 0.00 | 74 | 988.6 |
| 20260507121037 | 79 | 0.0 | 7.0 | 0.00 | 0.00 | 0.00 | 76 | 988.4 | |
| 20260507120017 | 78 | 293 | 1.0 | 4.0 | 0.00 | 0.00 | 0.00 | 79 | 988.4 |
| 20260507115017 | 77 | 0.0 | 3.0 | 0.00 | 0.00 | 0.00 | 81 | 988.0 | |
| 20260507114017 | 76 | 293 | 2.0 | 10.0 | 0.00 | 0.00 | 0.00 | 82 | 988.0 |
| 20260507113037 | 76 | 293 | 1.0 | 9.0 | 0.00 | 0.00 | 0.00 | 84 | 988.0 |
| 20260507112017 | 75 | 293 | 1.0 | 7.0 | 0.00 | 0.00 | 0.00 | 86 | 987.9 |
| 20260507111017 | 75 | 0.0 | 2.0 | 0.00 | 0.00 | 0.00 | 87 | 987.6 | |
| 20260507110016 | 74 | 0.0 | 0.0 | 0.00 | 0.00 | 0.00 | 87 | 987.6 | |
| 20260507105016 | 74 | 0.0 | 1.0 | 0.00 | 0.00 | 0.00 | 87 | 987.5 | |
| 20260507104016 | 74 | 0.0 | 2.0 | 0.00 | 0.00 | 0.00 | 87 | 987.4 | |
| 20260507103016 | 74 | 0.0 | 5.0 | 0.00 | 0.00 | 0.00 | 87 | 987.4 | |
| 20260507102017 | 74 | 0.0 | 4.0 | 0.00 | 0.00 | 0.00 | 87 | 987.1 | |
| 20260507101016 | 74 | 0.0 | 4.0 | 0.00 | 0.00 | 0.00 | 87 | 987.0 | |
| 20260507100016 | 73 | 0.0 | 1.0 | 0.00 | 0.00 | 0.00 | 87 | 987.0 | |
| 20260507095016 | 73 | 0.0 | 0.0 | 0.00 | 0.00 | 0.00 | 87 | 987.0 | |
| 20260507094016 | 74 | 0.0 | 0.0 | 0.00 | 0.00 | 0.00 | 87 | 986.9 | |
| 20260507093016 | 74 | 0.0 | 3.0 | 0.00 | 0.00 | 0.00 | 87 | 986.9 | |
| 20260507092016 | 74 | 0.0 | 3.0 | 0.00 | 0.00 | 0.00 | 87 | 986.9 | |
| 20260507091016 | 74 | 0.0 | 0.0 | 0.00 | 0.00 | 0.00 | 87 | 986.9 | |
| 20260507090056 | 74 | 0.0 | 1.0 | 0.00 | 0.00 | 0.00 | 87 | 986.9 | |
| 20260507085016 | 74 | 0.0 | 2.0 | 0.00 | 0.00 | 0.00 | 87 | 986.6 | |
| 20260507084016 | 74 | 0.0 | 7.0 | 0.00 | 0.00 | 0.00 | 87 | 986.8 | |
| 20260507083016 | 74 | 0.0 | 0.0 | 0.00 | 0.00 | 0.00 | 86 | 986.8 | |
| 20260507082016 | 74 | 0.0 | 3.0 | 0.00 | 0.00 | 0.00 | 86 | 986.9 | |
| 20260507081016 | 74 | 0.0 | 0.0 | 0.00 | 0.00 | 0.00 | 86 | 986.9 | |
| 20260507080016 | 74 | 0.0 | 1.0 | 0.00 | 0.00 | 0.00 | 86 | 986.9 | |
| 20260507075036 | 74 | 0.0 | 2.0 | 0.00 | 0.00 | 0.00 | 85 | 987.0 | |
| 20260507074016 | 74 | 0.0 | 0.0 | 0.00 | 0.00 | 0.00 | 85 | 987.0 | |
| 20260507073016 | 74 | 0.0 | 0.0 | 0.00 | 0.00 | 0.00 | 85 | 987.0 | |
| 20260507072036 | 74 | 0.0 | 0.0 | 0.00 | 0.00 | 0.00 | 85 | 987.2 | |
| 20260507071016 | 74 | 0.0 | 0.0 | 0.00 | 0.00 | 0.00 | 84 | 987.4 | |
| 20260507070016 | 74 | 0.0 | 0.0 | 0.00 | 0.00 | 0.00 | 84 | 987.4 | |
| 20260507065016 | 75 | 0.0 | 0.0 | 0.00 | 0.00 | 0.00 | 84 | 987.5 | |
| 20260507064016 | 75 | 0.0 | 0.0 | 0.00 | 0.00 | 0.00 | 83 | 987.5 | |
| 20260507063036 | 75 | 0.0 | 4.0 | 0.00 | 0.00 | 0.00 | 83 | 987.5 | |
| 20260507062016 | 75 | 0.0 | 3.0 | 0.00 | 0.00 | 0.00 | 83 | 987.6 | |
| 20260507061016 | 75 | 0.0 | 4.0 | 0.00 | 0.00 | 0.00 | 83 | 987.8 | |
| 20260507060016 | 75 | 0.0 | 0.0 | 0.00 | 0.00 | 0.00 | 82 | 987.8 | |
| 20260507055015 | 75 | 0.0 | 4.0 | 0.00 | 0.00 | 0.00 | 82 | 988.0 | |
| 20260507054016 | 75 | 0.0 | 1.0 | 0.00 | 0.00 | 0.00 | 81 | 988.1 | |
| 20260507053016 | 75 | 0.0 | 0.0 | 0.00 | 0.00 | 0.00 | 81 | 988.1 | |
| 20260507052018 | 75 | 0.0 | 0.0 | 0.00 | 0.00 | 0.00 | 81 | 988.2 | |
| 20260507051018 | 76 | 0.0 | 5.0 | 0.00 | 0.00 | 0.00 | 80 | 988.4 | |
| 20260507050037 | 76 | 0.0 | 1.0 | 0.00 | 0.00 | 0.00 | 80 | 988.4 | |
| 20260507045018 | 76 | 0.0 | 0.0 | 0.00 | 0.00 | 0.00 | 79 | 988.6 | |
| 20260507044017 | 76 | 0.0 | 0.0 | 0.00 | 0.00 | 0.00 | 79 | 988.6 | |
| 20260507043017 | 76 | 0.0 | 5.0 | 0.00 | 0.00 | 0.00 | 78 | 988.6 | |
| 20260507042037 | 76 | 293 | 1.0 | 4.0 | 0.00 | 0.00 | 0.00 | 77 | 988.7 |
| 20260507041017 | 76 | 0.0 | 1.0 | 0.00 | 0.00 | 0.00 | 77 | 988.9 | |
| 20260507040017 | 77 | 0.0 | 6.0 | 0.00 | 0.00 | 0.00 | 76 | 988.9 | |
| 20260507035016 | 77 | 0.0 | 4.0 | 0.00 | 0.00 | 0.00 | 75 | 988.8 | |
| 20260507034017 | 77 | 0.0 | 1.0 | 0.00 | 0.00 | 0.00 | 74 | 989.1 | |
| 20260507033016 | 77 | 0.0 | 4.0 | 0.00 | 0.00 | 0.00 | 74 | 989.1 | |
| 20260507032016 | 77 | 0.0 | 4.0 | 0.00 | 0.00 | 0.00 | 74 | 989.1 | |
| 20260507031016 | 77 | 0.0 | 3.0 | 0.00 | 0.00 | 0.00 | 73 | 989.1 | |
| 20260507030016 | 78 | 0.0 | 4.0 | 0.00 | 0.00 | 0.00 | 72 | 989.1 | |
| 20260507025016 | 78 | 0.0 | 5.0 | 0.00 | 0.00 | 0.00 | 72 | 989.1 | |
| 20260507024036 | 78 | 0.0 | 5.0 | 0.00 | 0.00 | 0.00 | 71 | 989.1 | |
| 20260507023016 | 78 | 0.0 | 3.0 | 0.00 | 0.00 | 0.00 | 70 | 989.1 | |
| 20260507022016 | 78 | 0.0 | 3.0 | 0.00 | 0.00 | 0.00 | 70 | 988.8 | |
| 20260507021016 | 78 | 0.0 | 0.0 | 0.00 | 0.00 | 0.00 | 69 | 988.6 | |
| 20260507020016 | 78 | 0.0 | 5.0 | 0.00 | 0.00 | 0.00 | 69 | 988.6 | |
| 20260507015036 | 78 | 0.0 | 3.0 | 0.00 | 0.00 | 0.00 | 67 | 988.5 | |
| 20260507014016 | 79 | 0.0 | 5.0 | 0.00 | 0.00 | 0.00 | 66 | 988.5 | |
| 20260507013016 | 79 | 0.0 | 0.0 | 0.00 | 0.00 | 0.00 | 65 | 988.5 | |
| 20260507012016 | 79 | 0.0 | 4.0 | 0.00 | 0.00 | 0.00 | 64 | 988.3 | |
| 20260507011016 | 79 | 0.0 | 1.0 | 0.00 | 0.00 | 0.00 | 63 | 988.1 | |
| 20260507010016 | 80 | 0.0 | 5.0 | 0.00 | 0.00 | 0.00 | 62 | 988.1 | |
| 20260507005016 | 80 | 0.0 | 5.0 | 0.00 | 0.00 | 0.00 | 61 | 988.0 | |
| 20260507004016 | 80 | 0.0 | 1.0 | 0.00 | 0.00 | 0.00 | 60 | 988.0 | |
| 20260507003016 | 80 | 0.0 | 5.0 | 0.00 | 0.00 | 0.00 | 59 | 988.0 | |
| 20260507002016 | 81 | 0.0 | 0.0 | 0.00 | 0.00 | 0.00 | 58 | 987.8 | |
| 20260507001055 | 81 | 0.0 | 2.0 | 0.00 | 0.00 | 0.00 | 57 | 987.6 | |
| 20260507000016 | 82 | 0.0 | 5.0 | 0.00 | 0.00 | 0.00 | 56 | 987.6 | |
| 20260506235016 | 82 | 315 | 1.0 | 8.0 | 0.00 | 0.00 | 0.00 | 56 | 987.5 |
| 20260506234015 | 82 | 315 | 2.0 | 9.0 | 0.00 | 0.00 | 0.00 | 55 | 987.1 |
| 20260506233016 | 83 | 315 | 1.0 | 11.0 | 0.00 | 0.00 | 0.00 | 54 | 987.1 |
| 20260506232016 | 83 | 315 | 1.0 | 6.0 | 0.00 | 0.00 | 0.00 | 53 | 987.0 |
| 20260506231017 | 84 | 315 | 1.0 | 10.0 | 0.00 | 0.00 | 0.00 | 52 | 986.9 |
| 20260506230017 | 84 | 315 | 1.0 | 11.0 | 0.00 | 0.00 | 0.00 | 51 | 986.9 |
| 20260506225017 | 84 | 315 | 1.0 | 7.0 | 0.00 | 0.00 | 0.00 | 49 | 986.8 |
| 20260506224017 | 85 | 315 | 1.0 | 6.0 | 0.00 | 0.00 | 0.00 | 48 | 986.5 |
| 20260506223017 | 85 | 315 | 1.0 | 7.0 | 0.00 | 0.00 | 0.00 | 48 | 986.5 |
| 20260506222017 | 86 | 315 | 3.0 | 13.0 | 0.00 | 0.00 | 0.00 | 47 | 986.4 |